User: anonymous   Login
Location: Unspecified
(0.0000°N, 0.0000°E)
Time: 00:52:14
(UTC+00:00)
Language:

YAOGAN-34 02 - Orbit

View from above orbital plane
View from above orbital plane
View from above satellite
View from above satellite

Ground track
Ground track

The orbit is defined by the following mean orbital elements,

1 52084U          26145.57815286 +.00000000 +00000-0 +19913-4 0 00009
2 52084  63.3977 259.1916 0049989 353.2331   6.8015 13.45459108    08
Epoch (UTC): 25 May 2026 13:52:32
Eccentricity: 0.0049989
inclination: 63.3977°
perigee height: 1052 km
apogee height: 1126 km
right ascension of ascending node: 259.1916°
argument of perigee: 353.2331°
revolutions per day: 13.45459108
mean anomaly at epoch: 6.8015°

The dashed part of the orbit path shows where the satellite is in the earth's shadow,  

DLR